Weather History for South Bend, IN

Change the Weather History Date:

Wednesday, October 3, 2012

  Actual Average Record
Temperature  
Mean Temperature 59 °F 57 °F  
Max Temperature 62 °F 67 °F 88 °F (1953)
Min Temperature 56 °F 47 °F 28 °F (1974)
Degree Days  
Heating Degree Days 6 9  
Month to date heating degree days 22 26  
Since 1 July heating degree days 165 160  
Cooling Degree Days 0 1  
Month to date cooling degree days 0 3  
Year to date cooling degree days 1108 767  
Growing Degree Days 9 (Base 50)    
Moisture  
Dew Point 56 °F    
Average Humidity 83    
Maximum Humidity 93    
Minimum Humidity 72    
Precipitation  
Precipitation 0.05 in 0.12 in 2.37 in (1986)
Month to date precipitation 0.05 0.33  
Year to date precipitation 26.66 29.13  
Snow  
Snow 0.00 in - - ()
Month to date snowfall 0.0  
Snow Depth 0.00 in    
Sea Level Pressure  
Sea Level Pressure 29.97 in    
Wind  
Wind Speed 8 mph (SSE)    
Max Wind Speed 15 mph    
Max Gust Speed 20 mph    
Visibility 6 miles    
Events Rain    
T = Trace of Precipitation, MM = Missing Value Source: NWS Daily Summary

Daily Weather History Graph

Daily Weather History Graph

Search for Another Location

Airport:

Trip Planner

Search our weather history database for the weather conditions in past years. The results will help you decide how hot, cold, wet, or windy it might be!

Date:

Astronomy

Oct. 03, 2012 Rise Set
Actual Time 7:44 AM EDT 7:22 PM EDT
Civil Twilight 7:17 AM EDT 7:50 PM EDT
Nautical Twilight 6:44 AM EDT 8:22 PM EDT
Astronomical Twilight 6:12 AM EDT 8:54 PM EDT
Moon 9:11 PM EDT (10/3) 11:10 AM EDT (10/3)
Length of Visible Light 12h 33m
Length of Day
11h 37m
Waning Gibbous, 89% of the Moon is Illuminated
Oct 3
Waning Gibbous
Oct 8
Last Quarter
Oct 15
New
Oct 21
First Quarter
Oct 29
Full

Hourly Weather History & Observations

Time (EDT) Temp. Dew Point Humidity Pressure Visibility Wind Dir Wind Speed Gust Speed Precip Events Conditions
12:54 AM 62.1 °F 54.0 °F 75% 29.91 in 10.0 mi ESE 3.5 mph - N/A   Overcast
1:54 AM 60.1 °F 57.0 °F 90% 29.91 in 6.0 mi ESE 6.9 mph - 0.00 in   Overcast
2:18 AM 60.8 °F 57.2 °F 88% 29.91 in 7.0 mi East 4.6 mph - 0.00 in   Overcast
2:54 AM 60.1 °F 57.0 °F 90% 29.91 in 6.0 mi Calm Calm - 0.00 in   Overcast
3:03 AM 60.8 °F 57.2 °F 88% 29.91 in 5.0 mi East 3.5 mph - N/A   Overcast
3:26 AM 60.8 °F 57.2 °F 88% 29.91 in 4.0 mi East 3.5 mph - N/A   Overcast
3:54 AM 59.0 °F 57.0 °F 93% 29.91 in 5.0 mi East 3.5 mph - N/A   Overcast
4:54 AM 60.1 °F 57.0 °F 90% 29.91 in 4.0 mi East 5.8 mph - N/A   Overcast
5:54 AM 60.1 °F 57.9 °F 93% 29.92 in 3.0 mi ESE 4.6 mph - N/A   Overcast
6:18 AM 60.8 °F 57.2 °F 88% 29.93 in 2.5 mi SSE 5.8 mph - 0.00 in Rain Light Rain
6:40 AM 59.0 °F 57.2 °F 94% 29.94 in 4.0 mi SSW 10.4 mph - 0.01 in Rain Light Rain
6:48 AM 59.0 °F 55.4 °F 88% 29.94 in 5.0 mi SSW 8.1 mph - 0.01 in Rain Light Rain
6:54 AM 59.0 °F 55.9 °F 90% 29.94 in 6.0 mi SSW 10.4 mph - 0.01 in Rain Light Rain
7:04 AM 59.0 °F 55.4 °F 88% 29.95 in 8.0 mi South 10.4 mph - 0.00 in   Overcast
7:51 AM 57.2 °F 55.4 °F 94% 29.96 in 7.0 mi SSE 4.6 mph - 0.00 in   Overcast
7:54 AM 57.9 °F 55.0 °F 90% 29.96 in 7.0 mi South 3.5 mph - 0.00 in   Overcast
8:54 AM 57.9 °F 55.0 °F 90% 29.98 in 6.0 mi South 8.1 mph - N/A   Overcast
9:27 AM 57.2 °F 55.4 °F 94% 29.98 in 7.0 mi South 9.2 mph - N/A   Mostly Cloudy
9:34 AM 59.0 °F 55.4 °F 88% 29.99 in 7.0 mi South 9.2 mph - N/A   Overcast
9:54 AM 59.0 °F 55.0 °F 87% 29.99 in 7.0 mi South 8.1 mph - N/A   Overcast
10:14 AM 59.0 °F 55.4 °F 88% 29.99 in 9.0 mi South 10.4 mph - N/A   Overcast
10:54 AM 60.1 °F 55.0 °F 83% 29.99 in 10.0 mi South 11.5 mph - N/A   Overcast
11:05 AM 60.8 °F 53.6 °F 77% 29.99 in 10.0 mi South 12.7 mph - N/A   Overcast
11:54 AM 61.0 °F 54.0 °F 78% 29.98 in 10.0 mi South 8.1 mph - N/A   Overcast
12:54 PM 60.1 °F 54.0 °F 80% 29.99 in 10.0 mi South 11.5 mph - N/A   Overcast
1:18 PM 59.0 °F 55.4 °F 88% 29.99 in 6.0 mi South 12.7 mph - N/A   Overcast
1:29 PM 59.0 °F 55.4 °F 88% 30.00 in 5.0 mi South 5.8 mph - 0.00 in Rain Light Rain
1:54 PM 59.0 °F 55.9 °F 90% 29.99 in 6.0 mi South 8.1 mph - 0.01 in Rain Light Rain
2:54 PM 59.0 °F 55.9 °F 90% 29.98 in 7.0 mi South 11.5 mph - 0.00 in   Overcast
3:54 PM 59.0 °F 57.0 °F 93% 29.99 in 4.0 mi South 9.2 mph - 0.00 in Rain Light Rain
4:54 PM 60.1 °F 57.0 °F 90% 29.99 in 10.0 mi South 9.2 mph - 0.00 in   Overcast
5:54 PM 59.0 °F 57.0 °F 93% 30.00 in 3.0 mi South 10.4 mph - 0.01 in Rain Light Rain
6:54 PM 59.0 °F 55.9 °F 90% 30.01 in 7.0 mi SSW 9.2 mph - 0.00 in   Overcast
7:54 PM 57.9 °F 55.9 °F 93% 30.02 in 3.0 mi SSW 10.4 mph - 0.02 in Rain Light Rain
8:54 PM 57.9 °F 55.9 °F 93% 30.04 in 6.0 mi South 6.9 mph - 0.00 in Rain Light Rain
9:54 PM 59.0 °F 55.9 °F 90% 30.05 in 6.0 mi SSW 4.6 mph - 0.00 in   Overcast
10:54 PM 59.0 °F 55.9 °F 90% 30.05 in 6.0 mi South 6.9 mph - N/A   Overcast
11:54 PM 57.9 °F 55.9 °F 93% 30.06 in 5.0 mi SSW 6.9 mph - N/A   Overcast